Location: Little Baddow
(51.7333°N, 0.5667°E)
Time: 12:19:25
(UTC+00:00)

Cosmos 2298 Rocket - Pass Details

Date: 08 November 2025
Orbit: 773 x 781 km, 74.0° (Epoch: 10 December)

Event Time Altitude Azimuth Distance (km) Brightness Sun altitude
Exits shadow 03:46:59 59° 80° (E) 902 4.5 -30.6°
Drops below altitude 10° 03:51:43 10° 30° (NNE) 2,347 7.0 -29.9°
Sets 03:54:08 0° 27° (NNE) 3,280 7.8 -29.5°
